| time (UTC) | temp F | wind direction | speed knots | gust knots | rain 1hr in | rain 24hr in | rain mn in | humidity % | barometer mb |
| 20260505070100 | 57 | 360 | 8.7 | 19.1 | 0.02 | 0.02 | 0.02 | 80 | 1005.3 |
| 20260505064511 | 62 | 360 | 11.3 | 19.1 | 0.00 | 0.00 | 0.00 | 63 | 1004.3 |
| 20260505063151 | 67 | 360 | 13.9 | 23.5 | 0.00 | 0.00 | 0.00 | 61 | 1003.3 |
| 20260505061540 | 67 | 360 | 0.9 | 5.2 | 0.00 | 0.00 | 0.00 | 75 | 1003.1 |
| 20260505060041 | 67 | 360 | 0.9 | 3.5 | 0.00 | 0.00 | 0.00 | 74 | 1002.2 |
| 20260505054549 | 67 | 360 | 2.6 | 4.3 | 0.00 | 0.00 | 0.00 | 75 | 1002.4 |
| 20260505053018 | 67 | 360 | 0.9 | 3.5 | 0.00 | 0.00 | 0.00 | 75 | 1002.4 |
| 20260505051508 | 67 | 360 | 0.9 | 4.3 | 0.00 | 0.00 | 0.00 | 75 | 1001.9 |
| 20260505041506 | 68 | 360 | 2.6 | 5.2 | 0.00 | 0.00 | 0.00 | 73 | 1002.4 |
| 20260505040105 | 68 | 360 | 1.7 | 3.5 | 0.00 | 0.00 | 0.00 | 73 | 1002.8 |
| 20260505034539 | 69 | 360 | 1.7 | 4.3 | 0.00 | 0.00 | 0.00 | 73 | 1002.7 |
| 20260505033010 | 69 | 360 | 1.7 | 5.2 | 0.00 | 0.00 | 0.00 | 72 | 1002.6 |
| 20260505031523 | 70 | 360 | 0.9 | 4.3 | 0.00 | 0.00 | 0.00 | 72 | 1002.6 |
| 20260505030049 | 70 | 360 | 3.5 | 8.7 | 0.00 | 0.00 | 0.00 | 71 | 1002.4 |
| 20260505024608 | 71 | 360 | 2.6 | 7.0 | 0.00 | 0.00 | 0.00 | 70 | 1002.3 |
| 20260505023048 | 72 | 360 | 2.6 | 5.2 | 0.00 | 0.00 | 0.00 | 69 | 1002.1 |
| 20260505021516 | 72 | 360 | 0.9 | 2.6 | 0.00 | 0.00 | 0.00 | 68 | 1002.0 |
| 20260505020110 | 73 | 360 | 0.9 | 2.6 | 0.00 | 0.00 | 0.00 | 66 | 1001.8 |
| 20260505014513 | 74 | 360 | 1.7 | 4.3 | 0.00 | 0.00 | 0.00 | 66 | 1001.4 |
| 20260505013055 | 74 | 360 | 0.9 | 5.2 | 0.00 | 0.00 | 0.00 | 63 | 1001.2 |
| 20260505011601 | 75 | 360 | 0.9 | 3.5 | 0.00 | 0.00 | 0.00 | 61 | 1000.9 |
| 20260505010113 | 76 | 360 | 0.9 | 3.5 | 0.00 | 0.00 | 0.00 | 60 | 1000.6 |
| 20260505004631 | 77 | 360 | 0.9 | 2.6 | 0.00 | 0.00 | 0.00 | 59 | 1000.4 |
| 20260505003111 | 78 | 360 | 0.9 | 2.6 | 0.00 | 0.00 | 0.00 | 58 | 1000.3 |
| 20260505001539 | 79 | 360 | 0.9 | 2.6 | 0.00 | 0.00 | 0.00 | 57 | 1000.3 |
| 20260505000101 | 80 | 182 | 0.9 | 2.6 | 0.00 | 0.00 | 0.00 | 55 | 1000.3 |
| 20260504234609 | 80 | 360 | 0.9 | 4.3 | 0.00 | 0.00 | 0.00 | 53 | 1000.3 |
| 20260504233019 | 80 | 360 | 0.9 | 4.3 | 0.00 | 0.00 | 0.00 | 51 | 1000.4 |
| 20260504231526 | 82 | 360 | 0.9 | 2.6 | 0.00 | 0.00 | 0.00 | 53 | 1000.5 |
| 20260504224543 | 82 | 205 | 1.7 | 7.0 | 0.00 | 0.00 | 0.00 | 51 | 1000.4 |
| 20260504223017 | 81 | 360 | 1.7 | 7.8 | 0.00 | 0.00 | 0.00 | 51 | 1000.3 |
| 20260504221647 | 81 | 360 | 2.6 | 11.3 | 0.00 | 0.00 | 0.00 | 51 | 1000.4 |
| 20260504220004 | 82 | 360 | 1.7 | 7.0 | 0.00 | 0.00 | 0.00 | 50 | 1000.4 |
| 20260504214518 | 81 | 360 | 0.9 | 4.3 | 0.00 | 0.00 | 0.00 | 51 | 1000.6 |
| 20260504213101 | 82 | 360 | 3.5 | 11.3 | 0.00 | 0.00 | 0.00 | 46 | 1000.7 |
| 20260504211532 | 83 | 360 | 2.6 | 8.7 | 0.00 | 0.00 | 0.00 | 51 | 1000.7 |
| 20260504210048 | 83 | 360 | 4.3 | 8.7 | 0.00 | 0.00 | 0.00 | 48 | 1000.8 |
| 20260504204502 | 83 | 360 | 0.9 | 9.6 | 0.00 | 0.00 | 0.00 | 50 | 1000.9 |
| 20260504203007 | 83 | 360 | 5.2 | 12.2 | 0.00 | 0.00 | 0.00 | 47 | 1001.0 |
| 20260504201527 | 83 | 360 | 2.6 | 8.7 | 0.00 | 0.00 | 0.00 | 48 | 1001.2 |
| 20260504200044 | 83 | 360 | 3.5 | 8.7 | 0.00 | 0.00 | 0.00 | 48 | 1001.4 |
| 20260504194604 | 82 | 360 | 3.5 | 10.4 | 0.00 | 0.00 | 0.00 | 49 | 1001.5 |
| 20260504193025 | 82 | 360 | 4.3 | 11.3 | 0.00 | 0.00 | 0.00 | 45 | 1001.7 |
| 20260504191512 | 82 | 360 | 5.2 | 13.9 | 0.00 | 0.00 | 0.00 | 46 | 1001.8 |
| 20260504190046 | 82 | 360 | 2.6 | 9.6 | 0.00 | 0.00 | 0.00 | 49 | 1001.8 |
| 20260504184532 | 81 | 161 | 2.6 | 7.0 | 0.00 | 0.00 | 0.00 | 53 | 1001.9 |
| 20260504183007 | 80 | 360 | 3.5 | 8.7 | 0.00 | 0.00 | 0.00 | 52 | 1002.1 |
| 20260504181519 | 79 | 360 | 3.5 | 10.4 | 0.00 | 0.00 | 0.00 | 53 | 1002.2 |
| 20260504180103 | 77 | 360 | 2.6 | 9.6 | 0.00 | 0.00 | 0.00 | 53 | 1002.4 |
| 20260504174538 | 78 | 360 | 6.1 | 14.8 | 0.00 | 0.00 | 0.00 | 52 | 1002.5 |
| 20260504173103 | 77 | 360 | 3.5 | 8.7 | 0.00 | 0.00 | 0.00 | 51 | 1002.5 |
| 20260504171538 | 78 | 360 | 4.3 | 13.0 | 0.00 | 0.00 | 0.00 | 54 | 1002.6 |
| 20260504170107 | 77 | 360 | 2.6 | 13.9 | 0.00 | 0.00 | 0.00 | 54 | 1002.8 |
| 20260504140113 | 67 | 360 | 5.2 | 15.6 | 0.00 | 0.00 | 0.00 | 59 | 1003.1 |
| 20260504081523 | 67 | 360 | 3.5 | 13.0 | 0.00 | 0.00 | 0.00 | 52 | 1005.0 |